Location: Arbon
(43.0005°N, 0.7472°E)
Time: 10:04:59
(UTC+00:00)

Vanguard 2 Rocket - Pass Details

Date: 04 December 2020
Orbit: 554 x 3325 km, 32.9° (Epoch: 21 January)

Event Time Altitude Azimuth Distance (km) Brightness Sun altitude
Rises 10:10:21 0° 271° (W) 7,262 11.3 21.0°
Reaches altitude 10° 10:15:23 10° 268° (W) 6,286 11.0 21.3°
Maximum altitude 10:34:24 53° 199° (SSW) 3,357 10.7 22.5°
Drops below altitude 10° 10:47:59 10° 128° (SE) 4,629 11.5 23.3°
Sets 10:51:04 0° 123° (ESE) 5,309 11.5 23.4°
